Weather History for KACK - November, 2011

Change the Weather History Date:

Thursday, November 10, 2011

  Actual Average Record
Temperature  
Mean Temperature 58 °F -  
Max Temperature 61 °F 54 °F 65 °F (1950)
Min Temperature 55 °F 43 °F 26 °F (1954)
Degree Days  
Heating Degree Days 7    
Growing Degree Days 8 (Base 50)    
Moisture  
Dew Point 56 °F    
Average Humidity 96    
Maximum Humidity 100    
Minimum Humidity 83    
Precipitation  
Precipitation 0.00 in - - ()
Sea Level Pressure  
Sea Level Pressure 29.70 in    
Wind  
Wind Speed 12 mph (SE)    
Max Wind Speed 24 mph    
Max Gust Speed 31 mph    
Visibility 5 miles    
Events Fog , Rain    
Averages and records for this station are not official NWS values.
T = Trace of Precipitation, MM = Missing Value Source: NWS Daily Summary

Daily Weather History Graph

Daily Weather History Graph

Search for Another Location

Airport or City:

Trip Planner

Search our weather history database for the weather conditions in past years. The results will help you decide how hot, cold, wet, or windy it might be!

Date:

Astronomy

Nov. 10, 2011 Rise Set
Actual Time 6:21 AM EST 4:25 PM EST
Civil Twilight 5:52 AM EST 4:55 PM EST
Nautical Twilight 5:19 AM EST 5:28 PM EST
Astronomical Twilight 4:47 AM EST 6:00 PM EST
Moon 4:10 PM EST (11/10) 6:11 AM EST (11/10)
Length of Visible Light 11h 02m
Length of Day
10h 03m
Full, 100% of the Moon is Illuminated
Nov 10
Full
Nov 10
Full
Nov 18
Last Quarter
Nov 25
New
Dec 2
First Quarter

Hourly Weather History & Observations

Time (EST) Temp. Dew Point Humidity Pressure Visibility Wind Dir Wind Speed Gust Speed Precip Events Conditions
12:53 AM 55.0 °F 54.0 °F 96% 30.06 in 7.0 mi ESE 8.1 mph - N/A   Mostly Cloudy
1:53 AM 55.0 °F 54.0 °F 96% 30.04 in 7.0 mi ESE 9.2 mph - N/A   Mostly Cloudy
2:53 AM 57.0 °F 55.0 °F 93% 30.01 in 7.0 mi ESE 9.2 mph - N/A   Overcast
3:53 AM 55.4 °F 55.4 °F 100% 30.01 in 9.0 mi ESE 9.2 mph - N/A   Overcast
4:53 AM 55.9 °F 54.0 °F 93% 30.00 in 10.0 mi SE 10.4 mph - N/A   Overcast
5:53 AM 57.0 °F 54.0 °F 89% 29.99 in 10.0 mi ESE 8.1 mph - N/A   Overcast
6:53 AM 57.2 °F 55.4 °F 94% 29.98 in 10.0 mi ESE 9.2 mph - N/A   Overcast
7:53 AM 60.1 °F 57.0 °F 90% 29.96 in 10.0 mi ESE 12.7 mph - N/A   Overcast
8:53 AM 61.0 °F 55.9 °F 83% 29.94 in 10.0 mi ESE 11.5 mph - N/A   Overcast
9:53 AM 61.0 °F 55.9 °F 83% 29.92 in 10.0 mi ESE 12.7 mph - N/A   Overcast
10:53 AM 61.0 °F 55.9 °F 83% 29.88 in 10.0 mi ESE 16.1 mph - N/A   Partly Cloudy
11:53 AM 60.1 °F 57.0 °F 90% 29.84 in 10.0 mi ESE 15.0 mph - N/A   Clear
12:39 PM 59.0 °F 57.2 °F 94% 29.80 in 7.0 mi ESE 13.8 mph - 0.00 in Rain Light Rain
12:53 PM 57.9 °F 57.0 °F 97% 29.79 in 4.0 mi ESE 11.5 mph - 0.00 in Rain Light Rain
1:53 PM 61.0 °F 60.1 °F 97% 29.74 in 4.0 mi ESE 24.2 mph 31.1 mph N/A Rain Light Rain
2:22 PM 60.8 °F 59.0 °F 94% 29.72 in 1.8 mi ESE 18.4 mph 25.3 mph N/A Rain Light Rain
2:53 PM 57.2 °F 57.2 °F 100% 29.70 in 0.8 mi ESE 19.6 mph 26.5 mph N/A Rain Light Rain
3:02 PM 57.2 °F 57.2 °F 100% 29.70 in 2.0 mi ESE 18.4 mph - N/A Rain Light Rain
3:10 PM 57.2 °F 57.2 °F 100% 29.69 in 4.0 mi ESE 20.7 mph 27.6 mph N/A Rain Light Rain
3:53 PM 59.0 °F 57.9 °F 96% 29.68 in 4.0 mi East 15.0 mph - N/A   Overcast
4:44 PM 57.2 °F 57.2 °F 100% 29.66 in 10.0 mi ESE 15.0 mph 23.0 mph N/A   Mostly Cloudy
4:51 PM 57.2 °F 57.2 °F 100% 29.65 in 10.0 mi ESE 15.0 mph - N/A   Overcast
4:53 PM 57.2 °F 55.4 °F 94% 29.65 in 10.0 mi ESE 17.3 mph - N/A   Overcast
5:37 PM 57.2 °F 55.4 °F 94% 29.63 in 2.0 mi ESE 17.3 mph - N/A   Overcast
5:53 PM 57.9 °F 57.9 °F 100% 29.62 in 2.0 mi SE 13.8 mph - N/A   Overcast
5:59 PM 57.2 °F 57.2 °F 100% 29.62 in 0.8 mi ESE 12.7 mph - N/A   Mist
6:12 PM 57.2 °F 57.2 °F 100% 29.61 in 0.2 mi SE 11.5 mph - N/A Fog Fog
6:19 PM 57.2 °F 55.4 °F 94% 29.61 in 0.2 mi SE 10.4 mph - N/A Fog Fog
6:53 PM 57.0 °F 57.0 °F 100% 29.59 in 0.5 mi South 11.5 mph - N/A Fog Fog
7:12 PM 57.2 °F 57.2 °F 100% 29.58 in 1.0 mi South 12.7 mph - N/A   Mist
7:25 PM 57.2 °F 57.2 °F 100% 29.58 in 5.0 mi South 13.8 mph - N/A   Overcast
7:35 PM 57.2 °F 57.2 °F 100% 29.58 in 1.8 mi South 13.8 mph - N/A   Overcast
7:47 PM 57.2 °F 57.2 °F 100% 29.57 in 3.0 mi South 13.8 mph - N/A   Overcast
7:53 PM 57.9 °F 57.0 °F 97% 29.57 in 6.0 mi South 13.8 mph - N/A   Mostly Cloudy
8:22 PM 57.2 °F 57.2 °F 100% 29.56 in 6.0 mi South 10.4 mph - N/A   Mostly Cloudy
8:39 PM 57.2 °F 57.2 °F 100% 29.55 in 6.0 mi South 11.5 mph - N/A   Overcast
8:53 PM 57.9 °F 57.0 °F 97% 29.55 in 4.0 mi SSW 10.4 mph - N/A   Overcast
8:56 PM 57.2 °F 57.2 °F 100% 29.54 in 3.0 mi SSW 10.4 mph - N/A   Overcast
9:05 PM 57.2 °F 57.2 °F 100% 29.53 in 1.8 mi SSW 8.1 mph - N/A   Overcast
9:15 PM 57.2 °F 57.2 °F 100% 29.53 in 0.8 mi South 8.1 mph - N/A   Overcast
9:48 PM 55.4 °F 55.4 °F 100% 29.53 in 0.5 mi South 8.1 mph - N/A Fog Fog
9:53 PM 55.9 °F 55.9 °F 100% 29.53 in 0.2 mi South 8.1 mph - N/A Fog Fog
10:26 PM 55.4 °F 55.4 °F 100% 29.51 in 0.5 mi SSW 4.6 mph - N/A Fog Fog
10:34 PM 55.4 °F 55.4 °F 100% 29.51 in 0.5 mi South 3.5 mph - N/A Fog , Rain Light Rain
10:53 PM 55.9 °F 55.0 °F 97% 29.49 in 0.8 mi South 3.5 mph - N/A Rain Light Rain
11:53 PM 57.0 °F 55.9 °F 96% 29.48 in 1.5 mi West 9.2 mph - 0.00 in   Overcast